CAPE
4 2 2 3 2 2 2 2 1 1 1 1 0 0 0 0 0 0 0 0 1 1 1 1 0 1 0 0 0 0 611 289 0 0 0 0 0 0 0 0 0 0 3 297 472 740 994
3 3 3 2 1 1 1 1 1 0 0 1 1 2 2 1 0 0 0 1 2 1 1 0 0 0 0 0 0 0 0 0 0 0 0 0 0 0 0 0 0 9 323 565 823 957 1074
2 2 2 1 1 1 1 1 1 1 0 1 1 2 2 2 0 0 1 3 3 1 1 0 0 0 0 0 0 0 0 0 0 0 0 0 0 0 0 0 0 42 498 784 729 1082 1111
1 1 1 2 3 2 2 1 1 1 1 1 2 2 3 2 2 2 2 0 1 0 0 0 0 0 0 0 0 0 0 0 0 0 0 0 0 0 0 0 0 20 42 455 391 1046 1050
1 0 1 0 0 2 1 2 2 1 1 1 2 3 4 3 0 1 0 2 0 0 0 0 0 0 0 0 0 0 0 0 0 0 0 0 0 0 0 0 0 0 0 0 300 279 1015
1 2 0 0 0 2 0 1 1 1 2 3 3 3 0 0 0 0 1 0 0 0 0 0 0 0 0 0 0 0 0 0 0 0 0 0 0 0 0 0 0 0 0 0 15 377 500
1 0 1 1 1 3 1 1 1 3 0 0 0 0 0 0 1 0 0 0 0 0 0 0 0 0 0 0 0 0 0 0 0 0 25 0 12 14 0 0 0 0 0 0 459 542 676
2 1 0 0 0 0 1 2 1 0 0 0 0 1 1 0 2 0 0 0 0 0 0 0 0 0 0 0 0 0 0 0 0 0 0 8 48 0 0 0 0 0 0 44 442 540 637
5 0 0 1 0 0 0 1 0 0 0 0 0 1 0 1 0 0 0 0 0 0 0 0 0 0 0 0 0 0 0 0 0 0 0 63 9 0 0 0 0 0 0 170 623 293 55
3 1 1 0 1 0 1 1 0 0 1 0 1 2 1 2 0 0 0 0 0 0 0 0 0 0 0 0 0 0 0 0 0 0 0 0 0 0 0 0 0 0 0 0 628 655 510
0 1 1 1 0 0 0 1 0 0 0 0 2 2 1 1 0 0 0 0 0 0 0 0 0 0 0 0 0 0 0 0 0 0 0 0 0 0 0 0 0 0 1 277 345 264 276
0 0 0 0 1 0 0 0 0 0 1 0 1 1 2 0 1 0 0 0 0 0 0 0 0 0 0 0 0 0 0 0 0 0 0 0 0 0 0 0 0 0 0 0 0 1 164
0 0 0 0 0 0 0 0 0 0 0 0 0 0 3 0 0 0 0 0 0 0 0 0 0 0 0 0 0 0 0 0 0 0 0 0 0 0 0 0 0 0 0 0 6 52 1
0 0 0 0 0 0 0 0 0 0 0 0 0 0 0 0 0 0 0 0 0 0 0 0 0 0 0 0 0 0 0 0 0 0 0 0 0 0 0 0 0 0 0 0 0 0 3
0 0 0 0 0 0 0 0 0 0 0 0 0 0 0 0 0 0 0 0 0 0 0 0 0 0 0 0 0 0 0 0 0 0 0 0 0 0 0 0 0 0 0 0 0 2 38
1 0 0 0 0 0 0 1 0 0 0 0 0 0 0 0 0 0 0 0 0 0 0 0 0 0 0 0 0 0 0 0 0 0 0 0 0 0 0 0 0 0 0 0 8 72 13
1 1 0 0 0 0 0 1 0 0 0 0 0 0 0 0 0 0 0 0 0 0 0 0 0 0 0 0 0 0 0 0 0 0 0 0 0 0 0 2 0 0 1 0 55 22 146
1 1 0 0 0 0 0 0 0 0 0 0 0 0 0 0 0 0 0 0 0 0 0 0 0 0 0 0 0 0 0 0 0 0 0 0 0 0 0 3 0 0 17 35 0 490 259
1 0 0 0 0 0 0 0 0 0 0 0 0 0 0 0 0 0 0 0 0 0 0 0 0 0 0 0 0 0 0 0 0 0 0 0 0 6 49 12 0 100 20 0 4 74 476
1 0 0 0 0 0 0 0 0 0 0 0 0 34 0 0 0 0 7 51 0 0 0 0 0 0 0 0 0 0 0 0 0 0 0 0 0 0 0 1 79 244 125 5 179 344 403
1 0 0 0 0 0 0 0 0 0 0 0 0 0 0 4 0 4 9 2 0 0 0 0 0 0 0 87 32 101 0 6 0 33 0 0 0 0 0 0 0 16 122 30 168 114 238
0 0 0 1 0 0 0 0 0 0 0 0 0 0 0 0 0 57 17 41 0 2 2 0 0 0 0 205 239 266 242 82 75 0 0 0 181 68 86 50 37 67 50 139 102 57 25
0 0 0 1 0 0 0 0 0 0 0 0 0 0 0 0 0 154 87 21 0 0 5 0 0 0 45 33 5 0 4 1 77 111 43 195 146 135 265 165 130 226 281 164 179 77 105
0 0 1 0 0 0 1 1 3 0 0 3 0 0 0 0 0 75 0 0 0 0 1 9 2 85 47 0 0 0 0 6 15 0 7 206 328 208 431 236 253 174 0 48 150 123 123
1 0 0 0 0 0 2 5 6 1 0 5 2 0 0 0 0 0 0 0 0 0 5 1 2 0 0 0 50 131 73 96 8 0 0 16 289 231 587 405 88 51 65 99 136 111 86
0 0 0 0 0 1 2 5 6 5 0 2 0 0 0 0 0 0 0 0 0 4 217 12 0 0 0 20 191 394 282 186 125 69 0 0 19 274 168 231 181 255 0 3 16 99 0
1 1 0 0 2 4 1 1 4 9 3 3 1 0 0 0 0 0 0 0 0 0 9 0 0 24 0 119 343 371 239 53 187 213 179 120 113 133 92 144 14 0 0 0 184 197 3
4 2 2 2 4 3 1 1 4 9 7 3 1 0 0 0 0 0 0 0 0 0 13 0 126 167 236 340 601 199 176 9 13 34 112 311 264 188 0 181 146 0 0 126 254 0 0
1 2 4 5 5 1 2 4 9 9 6 0 1 0 0 0 0 0 0 0 0 0 0 0 28 75 18 132 39 45 153 1 4 222 0 56 38 288 228 350 8 4 109 4 0 47 0
CIN
-0 -0 -0 -0 -0 -0 -0 -0 -0 -0 -0 -0 -0 -0 -0 -0 -0 -0 -0 -0 -0 -0 -0 -0 -0 -0 -0 -0 -0 -0 -582 -681 -0 -0 -0 -0 -0 -0 -0 -0 -0 -0 -12 -129 -132 -93 -76
-0 -0 -0 -0 -0 -0 -0 -0 -0 -0 -0 -0 -0 -0 -0 -0 -0 -0 -0 -0 -0 -0 -0 -0 -0 -0 -0 -0 -0 -0 -0 -0 -0 -0 -0 -0 -0 -0 -0 -0 -0 -104 -102 -124 -112 -100 -104
-0 -0 -0 -0 -0 -0 -0 -0 -0 -0 -0 -0 -0 -0 -0 -0 -0 -0 -0 -0 -0 -0 -0 -0 -0 -0 -0 -0 -0 -0 -0 -0 -0 -0 -0 -0 -0 -0 -0 -0 -0 -122 -63 -90 -107 -108 -107
-0 -0 -0 -0 -0 -0 -0 -0 -0 -0 -0 -0 -0 -0 -0 -0 -0 -0 -0 -0 -0 -0 -0 -0 -0 -0 -0 -0 -0 -0 -0 -0 -0 -0 -0 -0 -0 -0 -0 -0 -0 -74 -64 -22 -104 -100 -123
-0 -0 -0 -0 -0 -0 -0 -0 -0 -0 -0 -0 -0 -0 -0 -0 -0 -0 -0 -0 -0 -0 -0 -0 -0 -0 -0 -0 -0 -0 -0 -0 -0 -0 -0 -0 -0 -0 -0 -0 -0 -0 -1 -0 -64 -147 -99
-0 -0 -0 -0 -0 -0 -0 -0 -0 -0 -0 -0 -0 -0 -0 -0 -0 -0 -0 -0 -0 -0 -0 -0 -0 -0 -0 -0 -0 -0 -0 -0 -0 -0 -0 -0 -0 -0 -0 -0 -0 -0 -0 -0 -7 -143 -142
-0 -0 -0 -0 -0 -0 -0 -0 -0 -0 -0 -0 -0 -0 -0 -0 -0 -0 -0 -0 -0 -0 -0 -0 -0 -0 -0 -0 -0 -0 -0 -0 -0 -0 -107 -0 -44 -32 -0 -0 -0 -0 -0 -0 -134 -206 -151
-0 -0 -0 -0 -0 -0 -0 -0 -0 -0 -0 -0 -0 -0 -0 -0 -0 -0 -0 -0 -0 -0 -0 -0 -0 -0 -0 -0 -0 -0 -0 -0 -0 -0 -0 -22 -58 -0 -0 -0 -0 -0 -0 -77 -201 -233 -132
-6 -7 -2 -0 -0 -0 -0 -0 -0 -0 -0 -0 -0 -0 -0 -0 -0 -0 -0 -0 -0 -0 -0 -0 -0 -0 -0 -0 -0 -0 -0 -0 -0 -0 -0 -52 -41 -0 -0 -0 -0 -0 -0 -90 -81 -227 -243
-11 -13 -15 -0 -0 -0 -0 -0 -0 -0 -0 -0 -0 -0 -0 -0 -0 -0 -0 -0 -0 -0 -0 -0 -0 -0 -0 -0 -0 -0 -0 -0 -0 -0 -0 -0 -0 -0 -0 -0 -0 -0 -0 -43 -139 -69 -19
-21 -21 -18 -15 -0 -0 -0 -0 -0 -0 -0 -0 -0 -0 -0 -0 -0 -0 -0 -0 -0 -0 -0 -0 -0 -0 -0 -0 -0 -0 -0 -0 -0 -0 -0 -0 -0 -0 -0 -0 -0 -0 -14 -105 -153 -109 -87
-0 -15 -10 -17 -0 -0 -0 -0 -0 -0 -0 -0 -0 -0 -0 -0 -0 -0 -0 -0 -0 -0 -0 -0 -0 -0 -0 -0 -0 -0 -0 -0 -0 -0 -0 -0 -0 -0 -0 -0 -0 -0 -0 -0 -0 -99 -14
-0 -0 -0 -0 -0 -0 -0 -0 -0 -0 -0 -0 -1 -0 -0 -0 -0 -0 -0 -0 -0 -0 -0 -0 -0 -0 -0 -0 -0 -0 -0 -0 -0 -0 -0 -0 -0 -0 -0 -0 -0 -0 -0 -0 -15 -22 -23
-0 -0 -0 -0 -0 -0 -0 -0 -1 -0 -0 -0 -0 -0 -0 -0 -0 -0 -0 -0 -0 -0 -0 -0 -0 -0 -0 -0 -0 -0 -0 -0 -0 -0 -0 -0 -0 -0 -0 -0 -0 -0 -0 -0 -0 -0 -19
-0 -0 -0 -0 -1 -0 -0 -0 -1 -0 -0 -0 -0 -0 -0 -0 -0 -0 -0 -0 -0 -0 -0 -0 -0 -0 -0 -0 -0 -0 -0 -0 -0 -0 -0 -0 -0 -0 -0 -0 -0 -0 -0 -0 -0 -28 -80
-2 -0 -0 -0 -0 -0 -0 -1 -0 -0 -0 -0 -0 -0 -0 -0 -0 -0 -0 -0 -0 -0 -0 -0 -0 -0 -0 -0 -0 -0 -0 -0 -0 -0 -0 -0 -0 -0 -0 -0 -0 -0 -0 -0 -35 -15 -25
-4 -4 -0 -0 -0 -0 -0 -1 -1 -0 -0 -0 -0 -0 -0 -0 -0 -0 -0 -0 -0 -0 -0 -0 -0 -0 -0 -0 -0 -0 -0 -0 -0 -0 -0 -0 -0 -0 -0 -54 -0 -0 -8 -0 -167 -131 -6
-7 -6 -0 -0 -0 -0 -0 -0 -0 -0 -0 -0 -0 -0 -0 -0 -0 -0 -0 -0 -0 -0 -0 -0 -0 -0 -0 -0 -0 -0 -0 -0 -0 -0 -0 -0 -0 -0 -6 -135 -0 -0 -134 -76 -0 -79 -202
-9 -6 -0 -0 -0 -0 -0 -0 -0 -0 -0 -0 -0 -0 -0 -0 -0 -0 -0 -0 -0 -0 -0 -0 -0 -0 -0 -0 -0 -0 -0 -0 -0 -0 -0 -0 -0 -27 -42 -6 -0 -125 -297 -0 -170 -152 -95
-7 -0 -0 -0 -0 -0 -0 -0 -0 -0 -0 -0 -0 -59 -0 -0 -0 -0 -144 -250 -0 -0 -0 -0 -0 -0 -0 -0 -0 -0 -0 -0 -0 -0 -0 -0 -0 -0 -0 -18 -100 -94 -201 -195 -112 -20 -110
-9 -0 -0 -0 -0 -0 -0 -0 -0 -0 -0 -0 -0 -0 -0 -174 -0 -128 -305 -85 -0 -0 -0 -0 -0 -0 -0 -108 -129 -117 -0 -146 -0 -481 -0 -0 -0 -0 -0 -0 -0 -33 -140 -258 -133 -188 -37
-0 -0 -0 -0 -0 -0 -0 -0 -2 -0 -0 -0 -0 -0 -0 -0 -0 -358 -81 -239 -0 -310 -287 -0 -0 -0 -0 -90 -60 -87 -123 -172 -148 -0 -0 -0 -200 -268 -178 -313 -219 -130 -198 -163 -186 -212 -215
-0 -0 -0 -0 -0 -0 -0 -0 -0 -0 -0 -0 -0 -0 -0 -0 -0 -255 -218 -286 -0 -0 -144 -17 -75 -0 -161 -234 -318 -0 -507 -153 -378 -211 -288 -224 -266 -191 -97 -297 -170 -56 -75 -116 -126 -197 -113
-0 -0 -0 -0 -0 -0 -0 -0 -3 -0 -0 -0 -0 -0 -0 -0 -0 -182 -0 -0 -0 -0 -138 -390 -411 -219 -210 -0 -0 -0 -0 -154 -309 -0 -184 -303 -235 -206 -98 -153 -24 -87 -0 -61 -131 -132 -159
-0 -0 -0 -0 -0 -0 -0 -0 -0 -5 -0 -0 -0 -0 -0 -0 -0 -0 -0 -0 -0 -0 -277 -377 -365 -0 -0 -0 -105 -109 -99 -126 -122 -0 -0 -103 -210 -196 -56 -42 -135 -146 -253 -186 -101 -55 -100
-0 -0 -0 -0 -0 -0 -0 -0 -0 -5 -3 -0 -0 -0 -0 -0 -0 -0 -0 -0 -0 -143 -241 -372 -0 -0 -0 -340 -135 -60 -22 -78 -77 -177 -0 -29 -156 -69 -166 -36 -18 -58 -0 -106 -166 -37 -0
-0 -0 -0 -0 -0 -0 -0 -0 -0 -0 -5 -0 -0 -0 -0 -0 -0 -0 -0 -0 -0 -0 -314 -0 -0 -410 -0 -175 -90 -55 -30 -95 -31 -38 -106 -125 -165 -61 -89 -38 -76 -0 -0 -0 -20 -23 -62
-0 -0 -0 -0 -0 -0 -0 -0 -0 -1 -3 -0 -0 -0 -0 -0 -0 -0 -0 -0 -0 -0 -137 -0 -128 -108 -221 -110 -93 -139 -65 -124 -121 -41 -127 -58 -46 -53 -5 -48 -18 -0 -0 -27 -104 -0 -0
-0 -0 -0 -0 -0 -0 -0 -0 -0 -1 -5 -1 -0 -0 -0 -0 -0 -0 -0 -0 -0 -0 -0 -0 -175 -465 -444 -194 -268 -295 -117 -32 -13 -26 -0 -85 -134 -45 -62 -29 -132 -427 -289 -200 -0 -279 -0
Wind_Speed
13 14 14 15 15 15 16 16 16 16 16 17 17 17 17 18 18 19 19 18 18 17 15 14 11 10 3 1 1 5 6 7 7 3 1 2 3 1 3 2 1 1 4 7 13 13 10
12 13 14 14 15 16 16 16 17 17 17 17 17 17 17 18 18 19 19 19 20 18 14 11 9 8 3 2 1 2 8 6 3 3 1 1 3 2 2 1 3 3 10 12 9 11 7
13 14 14 14 15 15 16 16 17 17 17 18 18 18 18 18 19 20 20 20 20 18 13 8 5 2 1 1 2 4 7 5 3 2 0 0 1 2 1 2 2 4 10 11 4 5 5
14 15 15 16 16 15 15 16 16 17 17 17 18 19 19 19 20 21 21 21 21 17 6 3 3 1 3 1 1 2 4 3 1 2 2 1 1 2 3 1 4 3 3 3 3 3 6
14 15 15 16 17 16 15 16 16 17 17 17 18 19 20 21 21 22 22 22 17 7 0 5 2 2 1 2 2 1 4 3 4 2 0 3 2 4 2 5 4 6 2 2 5 2 5
14 14 15 16 18 16 16 16 16 17 18 18 19 20 22 22 22 22 23 18 6 4 3 3 3 2 1 1 2 2 2 3 3 6 4 1 4 3 5 5 3 2 2 1 3 3 3
15 15 16 17 18 16 17 17 18 18 20 21 22 23 23 23 23 20 11 1 3 3 2 4 2 2 4 4 3 3 3 4 2 3 5 3 2 3 4 2 2 2 3 3 4 1 3
13 16 17 17 18 19 18 18 18 20 21 21 22 23 24 24 21 17 3 1 6 2 6 4 7 6 5 1 1 2 5 5 2 8 3 4 6 5 4 3 1 5 4 2 5 2 1
10 10 11 17 18 19 20 18 19 21 21 21 23 22 24 24 24 3 3 1 3 1 3 4 4 4 3 9 5 7 9 5 4 8 7 11 1 9 1 3 8 4 5 7 3 7 5
11 12 12 12 18 19 18 18 21 21 20 22 22 21 22 28 3 4 2 2 6 4 2 3 4 4 6 4 4 2 5 4 3 7 8 8 2 6 7 8 3 5 4 6 13 8 3
12 12 12 13 18 16 17 18 21 22 23 23 20 19 20 10 7 4 3 7 1 4 2 3 3 2 1 6 7 4 1 3 8 6 6 9 4 6 6 6 5 3 1 9 6 4 4
12 12 13 14 14 16 17 18 22 21 21 24 23 19 16 2 3 5 7 6 3 2 3 2 4 6 7 1 2 4 3 5 3 5 1 5 0 4 4 4 6 14 10 10 5 2 5
12 12 13 13 14 16 17 18 20 23 24 25 23 25 9 3 1 6 6 3 2 4 2 3 3 6 9 6 4 4 7 8 7 8 7 3 9 3 4 4 4 7 7 3 3 5 3
12 12 13 12 13 15 17 21 20 22 24 25 27 17 5 4 3 7 3 3 4 1 4 2 1 5 12 8 5 4 8 9 2 4 6 9 9 7 6 8 3 7 5 4 5 5 1
12 12 12 12 13 16 17 19 21 23 27 28 21 0 2 2 4 3 3 4 4 4 2 5 2 5 5 5 3 5 8 11 11 10 4 6 3 1 2 2 2 6 5 4 6 1 4
12 13 12 12 12 15 16 18 20 26 30 28 4 3 3 5 5 2 1 3 4 4 4 2 3 4 9 12 8 9 9 5 9 13 9 2 4 2 4 2 9 3 7 5 1 4 5
11 12 13 13 14 14 15 19 21 25 28 17 2 1 6 5 3 1 4 5 5 6 5 3 2 1 4 7 10 7 6 3 7 10 6 6 2 5 3 1 3 6 4 6 4 2 2
11 12 12 12 13 13 15 19 20 22 26 3 3 2 3 3 1 1 2 3 2 5 4 7 4 8 6 8 7 8 10 3 7 12 11 6 2 3 1 5 2 1 2 6 5 5 0
10 11 12 12 11 12 15 16 18 22 18 5 3 2 2 3 2 1 2 4 4 4 5 3 3 6 4 5 4 7 7 3 9 11 12 11 5 3 6 5 3 5 4 1 5 2 7
10 10 11 11 11 11 14 15 17 19 16 2 2 1 1 2 1 1 2 2 5 4 6 5 4 3 4 4 2 7 7 4 5 6 4 7 5 8 8 2 1 5 6 6 5 4 5
9 9 10 10 9 11 13 15 18 19 14 2 3 3 2 0 2 2 2 2 4 4 4 4 3 7 5 5 4 5 4 6 4 7 4 7 6 4 2 1 2 2 6 9 5 2 6
8 8 8 9 8 9 11 14 17 20 14 2 3 3 2 2 3 3 2 1 4 5 4 2 3 8 6 4 4 10 7 4 3 5 4 1 4 5 4 2 5 5 5 10 7 3 10
7 7 7 6 7 9 10 12 14 16 12 3 2 0 2 1 3 2 1 2 3 7 5 12 12 7 2 2 3 5 7 8 5 6 5 5 7 6 5 1 4 5 12 11 5 5 5
5 5 4 5 7 8 9 10 12 11 8 1 1 2 2 2 2 2 5 6 9 7 6 8 8 3 3 6 8 10 11 11 11 9 5 8 6 0 4 5 6 3 2 3 10 6 12
3 2 4 5 7 8 9 9 10 10 9 2 0 2 2 3 3 5 6 5 10 4 3 4 5 5 1 3 2 4 1 3 6 7 6 4 3 5 5 6 3 2 5 5 8 4 11
4 4 5 6 7 8 9 10 9 10 8 1 1 1 2 3 2 4 5 4 4 6 3 1 1 4 1 0 2 3 4 2 2 3 5 6 5 1 3 4 7 0 3 3 5 4 1
6 6 6 7 8 8 10 11 10 10 8 3 2 2 2 3 3 2 2 4 3 2 4 4 8 4 1 1 3 1 3 1 4 4 4 2 2 4 4 4 3 3 3 6 5 2 3
7 7 7 7 7 8 10 10 10 10 7 4 2 2 3 3 9 6 4 4 2 0 3 6 4 1 2 3 1 2 1 2 2 1 2 5 5 3 3 3 5 5 5 5 3 3 2
9 9 7 6 7 9 9 9 9 9 7 2 2 1 2 4 6 3 9 12 11 8 3 1 3 2 2 2 1 2 2 2 1 3 1 4 2 1 5 0 3 1 3 2 1 4 5
Wind_Direction
15 12 8 3 0 358 356 354 350 347 343 341 339 335 334 333 330 327 324 321 321 320 321 317 315 322 288 223 341 19 141 151 150 177 149 60 33 73 61 9 283 317 48 59 117 136 130
13 11 6 3 0 358 355 353 348 345 343 340 337 333 331 330 328 325 322 320 320 318 315 309 309 316 286 115 4 60 140 151 160 165 143 191 40 35 100 353 37 51 100 103 109 121 120
10 9 6 2 359 355 352 349 345 342 339 337 335 332 329 328 328 324 322 323 320 315 305 291 289 296 248 93 88 135 152 182 174 191 170 154 101 354 327 100 42 100 100 104 86 133 110
10 10 6 2 358 350 347 345 342 338 335 334 334 331 328 329 328 325 324 322 316 313 296 237 225 243 257 246 36 206 184 175 168 201 302 50 74 73 22 317 45 76 79 116 141 156 125
8 7 5 2 357 349 344 342 339 336 333 332 332 330 329 331 330 325 322 316 307 318 63 155 179 301 139 110 233 199 197 175 147 148 8 115 57 51 71 115 92 34 81 67 159 16 141
8 3 0 356 351 342 340 338 336 334 333 333 333 333 334 332 331 328 321 306 282 301 223 222 229 233 269 82 288 131 197 171 154 139 145 104 62 71 41 50 78 55 5 318 203 169 83
3 359 354 349 347 340 337 335 333 336 340 338 338 337 334 332 329 329 332 208 240 168 183 243 150 273 275 307 278 172 188 148 117 117 176 58 279 43 63 100 111 247 282 276 114 121 107
1 354 349 345 342 342 336 333 332 338 339 337 336 336 334 330 324 321 269 41 89 33 302 234 253 267 261 284 265 184 170 161 159 155 144 218 253 151 124 127 52 272 311 122 105 81 182
328 336 341 349 342 337 334 330 334 337 336 335 335 336 334 330 321 282 323 131 53 222 274 292 212 215 203 174 193 180 182 137 147 154 176 230 150 148 352 349 326 308 283 183 151 123 87
325 320 319 329 343 334 332 330 336 335 334 332 333 336 338 330 284 337 273 79 329 227 322 254 223 236 155 192 166 178 190 141 123 175 165 225 162 236 288 296 264 299 306 186 152 176 189
327 325 323 322 337 330 329 329 336 334 333 330 330 331 333 334 314 244 59 322 303 220 279 100 165 94 131 197 128 159 222 97 158 151 202 209 219 236 254 238 185 323 229 142 141 105 193
327 328 329 329 330 330 329 330 336 333 329 329 327 326 329 165 226 266 317 307 209 234 245 128 144 155 158 124 94 111 154 73 92 118 56 173 121 242 215 168 196 149 108 91 89 69 256
328 329 328 327 330 325 323 331 336 334 330 329 322 320 296 215 279 329 308 184 195 228 353 142 169 170 175 162 153 151 166 172 177 185 197 211 238 225 176 215 143 181 185 122 159 200 273
326 327 328 328 327 323 329 339 334 334 331 328 325 317 179 218 289 338 233 158 224 257 266 346 65 141 190 160 186 153 150 185 131 139 159 198 197 194 162 225 165 185 224 217 237 224 164
324 324 326 327 330 328 333 338 339 335 332 331 320 277 183 254 246 235 196 193 237 214 311 323 124 165 172 173 182 169 205 209 196 195 224 162 209 171 25 63 299 151 200 43 117 85 259
323 325 328 324 325 329 332 336 338 339 336 335 326 314 16 352 175 210 155 229 244 226 308 247 240 202 174 175 172 197 181 178 193 198 216 173 175 56 140 145 65 247 124 159 159 188 236
318 324 324 323 320 324 330 340 343 342 336 335 292 93 14 99 243 96 200 238 261 244 226 233 273 249 202 167 192 174 189 175 209 172 196 161 267 147 201 34 159 150 168 69 107 321 272
317 319 320 316 319 324 331 344 346 345 338 25 322 103 35 282 111 360 199 211 269 274 195 252 256 241 216 175 169 196 206 259 152 147 171 178 124 246 303 139 81 276 174 191 236 182 198
305 313 314 315 319 330 337 340 346 350 357 324 20 336 83 304 151 129 267 263 260 258 235 216 252 216 188 173 185 204 196 168 155 160 160 169 207 148 151 153 167 224 152 146 111 128 187
299 305 310 315 322 336 342 340 344 345 354 298 297 144 83 71 14 313 341 276 282 244 259 246 266 189 163 156 195 177 169 152 157 195 119 153 151 203 214 150 92 175 181 190 270 199 145
294 302 312 319 327 339 346 348 343 345 351 283 360 62 12 14 132 317 276 316 301 305 243 242 218 227 184 142 151 171 158 138 95 146 104 203 184 174 90 190 193 169 189 176 209 157 266
290 296 311 320 330 344 353 353 351 349 344 62 3 353 356 298 292 283 160 229 302 313 278 282 252 352 207 182 194 178 155 193 166 167 129 125 155 154 149 165 183 164 167 184 218 219 257
287 300 314 325 344 353 359 360 358 2 352 23 42 204 286 2 329 260 157 332 298 333 260 257 299 295 141 337 1 81 90 82 110 142 123 150 146 180 183 213 191 208 205 193 195 196 228
300 304 323 352 356 356 1 2 359 15 34 339 357 295 302 295 280 282 320 309 290 301 271 304 331 265 50 111 118 95 83 96 85 71 85 141 128 347 125 189 201 61 17 258 229 242 217
320 24 25 6 2 1 1 360 0 4 18 329 313 301 333 296 302 289 327 303 307 314 208 260 349 341 330 334 108 101 59 161 67 43 66 84 144 118 162 211 340 239 182 175 196 223 222
50 40 23 11 3 0 359 1 360 355 10 348 278 247 305 309 195 289 320 331 335 336 334 149 15 318 26 16 104 145 163 104 163 114 70 75 72 308 164 205 236 172 143 205 204 254 24
40 31 22 12 5 1 359 358 358 350 8 352 293 240 274 280 263 193 275 330 311 298 296 323 342 347 296 73 80 134 123 319 167 182 162 132 65 211 166 220 253 250 227 178 201 31 50
23 19 15 7 3 2 358 355 349 343 359 4 308 236 310 285 278 226 237 212 235 231 358 334 276 139 355 72 143 120 137 120 213 102 184 194 174 169 149 191 219 166 152 218 65 100 117
2 0 355 355 347 353 351 347 341 342 354 25 297 25 335 246 285 293 257 255 252 248 311 278 321 298 1 64 79 116 154 174 182 189 119 215 260 285 236 227 27 268 293 14 214 139 154